USA 40 R/B DEB, 23372

Orbit data source: Space-Track

USA 40 R/B DEB, 23372 is space debris originally from a launch on Tue, 08 Aug 1989 UTC launched from the Air Force Eastern Test Range (AFETR). Debris objects in space refer to the collection of defunct objects orbiting the Earth. Examples of debris include non-operational satellites, rocket bodies, and fragments generated from explosions, collisions, or faulty payload assembly.

Loading next visibility...
Identifier
23372, 1989-061AU
Orbit
Active
Country
Flag of USUS
Related business
Manufacturer
Unknown
Mission
Spacecraft
Bus & Motor
Unknown
Mass
Unknown
Launch date (UTC)
1989-08-08 (37 years ago)
Launch vehicle
Unknown
Launch site
Air Force Eastern Test Range (AFETR)
Object type
Payload
Rocket body
Debris
Shape & HBR
Unknown shape, 0.1 m
Radar Cross Section
Medium (>0.1 m² and <1 m²)

Expand to show TLE details & history
Last TLE update: 2 weeks ago

TLE from 2 weeks ago
0 USA 40 R/B DEB
1 23372U 89061AU  26157.98132227  .00015631  00000-0  86674-2 0  9995
2 23372  57.0445 261.2409 2711568 173.3712 191.2330  9.48596289242425
Epoch: 2026-06-06T23:33Z
TLE epoch observation values (Epoch: 2026-06-06T23:33:06.244Z)
Latitude
0.00003°
Longitude
12.57582°
Altitude
5,575.105 km
Speed
4.942 km/s
True Right ascension
17h 24m 57s
True Declination
0° 00' 00"
Sunlit
Object was in full shadow at epoch
Visualization orbit readout
Latitude
Unknown
Longitude
Unknown
Altitude
Unknown
Speed
Unknown
Apparent Right ascension
Unknown
Apparent Declination
Unknown
Sunlit
N/A
Visualization observer readout
Local Sidereal Time
13:26:51
Azimuth
Unknown
Elevation
Unknown
Doppler factor
Unknown
Orbital elements
Apogee altitude
5,603.976 km
Perigee altitude
492.047 km
Semi-major axis
9,426.149 km
Eccentricity
0.27116
Inclination
57.0445°
RAAN
261.2409°
Arg. of periapsis
173.3712°
True anomaly
186.7027°
Mean anomaly
191.233°
Eccentric anomaly
188.84432°
Mean motion
2.3716 °/min
Orbital period
151.8 mins
BSTAR
0.0086674
Loading maneuver chart data...
Computing Atmospheric mass density...
Loading historical data...
Loading historical data...
Loading historical data...
Loading historical data...
Loading historical data...
Loading historical data...
Loading historical data...

Documentation

Showing up to 5 results
|